Location: Unspecified
(0.0000°N, 0.0000°E)
Time: 03:38:26
(UTC+00:00)

Vanguard 2 Rocket - All Passes

Search period start: 20 January 2017 00:00
Search period end: 30 January 2017 00:00
Orbit: 553 x 3329 km, 32.9° (Epoch: 19 January)

Date Brightness Start Highest point End Pass type
(mag) Time Alt. Az. Time Alt. Az. Time Alt. Az.
20 Jan - 02:22:33 10° NNW 02:33:13 28° NE 02:47:53 10° E visible
20 Jan - 04:34:57 10° NW 04:51:12 72° NE 05:11:40 10° ESE visible
20 Jan - 06:51:42 10° WNW 07:10:25 55° SW 07:28:38 10° SE daylight
20 Jan - 09:16:40 10° WSW 09:30:42 23° SSW 09:42:11 10° SSE daylight
20 Jan - 16:22:06 10° SW 16:27:15 32° SSE 16:31:03 10° E daylight
20 Jan - 18:37:00 10° W 18:40:07 20° NW 18:43:08 10° NNE visible
21 Jan - 01:24:40 10° N 01:31:57 18° NNE 01:41:29 10° ENE visible
21 Jan - 03:35:23 10° NW 03:49:25 55° NE 04:08:57 10° ESE visible
21 Jan - 05:50:10 10° WNW 06:08:01 70° SW 06:27:57 10° SE daylight
21 Jan - 08:11:27 10° W 08:28:10 31° SSW 08:42:46 10° SSE daylight
21 Jan - 10:43:25 10° SW 10:49:45 13° SSW 10:55:12 10° S daylight
21 Jan - 15:22:25 10° SSW 15:27:39 21° SSE 15:31:26 10° ESE daylight
21 Jan - 17:36:33 10° WSW 17:41:11 47° NW 17:44:57 10° NE daylight
22 Jan - 02:36:24 10° NNW 02:48:05 39° NE 03:05:08 10° E visible
22 Jan - 04:49:33 10° NW 05:05:48 88° SW 05:26:33 10° SE visible
22 Jan - 07:07:52 10° W 07:25:33 41° SSW 07:42:46 10° SE daylight
22 Jan - 09:35:44 10° WSW 09:47:03 18° SSW 09:56:31 10° SSE daylight
22 Jan - 14:22:27 10° SSW 14:27:33 16° SSE 14:31:24 10° SE daylight
22 Jan - 16:36:22 10° SW 16:42:16 78° SSE 16:46:22 10° ENE daylight
23 Jan - 01:38:06 10° NNW 01:47:08 26° NE 02:00:05 10° E visible
23 Jan - 03:49:42 10° NW 04:03:57 74° NE 04:24:22 10° ESE visible
23 Jan - 06:05:39 10° WNW 06:22:58 53° SSW 06:42:12 10° SE daylight
23 Jan - 08:29:30 10° WSW 08:44:09 24° SSW 08:56:59 10° SSE daylight
23 Jan - 11:01:45 10° SSW 11:06:46 12° S 11:11:09 10° SSE daylight
23 Jan - 13:21:54 10° SSW 13:26:56 14° SSE 13:30:54 10° SE daylight
23 Jan - 15:36:07 10° SW 15:43:01 43° SSE 15:47:27 10° E daylight
23 Jan - 17:52:33 10° W 17:55:51 19° NW 17:58:43 10° N daylight
24 Jan - 00:40:52 10° N 00:46:25 15° NE 00:53:29 10° ENE visible
24 Jan - 02:50:29 10° NW 03:02:37 55° NE 03:21:19 10° ESE visible
24 Jan - 05:04:33 10° WNW 05:20:34 67° SW 05:41:01 10° SE visible
24 Jan - 07:24:54 10° W 07:41:11 31° SSW 07:56:54 10° SSE daylight
24 Jan - 09:54:53 10° SW 10:03:57 15° SSW 10:11:39 10° SSE daylight
24 Jan - 12:20:21 10° SSW 12:25:42 13° S 12:30:04 10° SSE daylight
24 Jan - 14:35:41 10° SSW 14:43:15 29° SSE 14:48:08 10° E daylight
24 Jan - 16:51:25 10° WSW 16:56:58 43° NW 17:00:56 10° NE daylight
25 Jan - 01:51:51 10° NNW 02:01:49 38° NE 02:17:19 10° E visible
25 Jan - 04:04:20 10° WNW 04:18:34 85° SW 04:39:12 10° SE visible
25 Jan - 06:21:51 10° W 06:38:18 40° SSW 06:56:19 10° SE daylight
25 Jan - 08:48:18 10° SW 09:00:46 19° SSW 09:11:40 10° SSE daylight
25 Jan - 11:17:16 10° SSW 11:23:46 13° S 11:29:09 10° SSE daylight
25 Jan - 13:34:52 10° SSW 13:42:57 23° SSE 13:48:24 10° ESE daylight
25 Jan - 15:50:32 10° SW 15:58:00 90° WNW 16:02:35 10° NE daylight
26 Jan - 00:53:55 10° N 01:01:24 24° NE 01:12:16 10° E visible
26 Jan - 03:04:49 10° NW 03:17:06 75° NE 03:36:41 10° ESE visible
26 Jan - 05:20:07 10° WNW 05:35:40 51° SSW 05:55:13 10° SE visible
26 Jan - 07:42:50 10° WSW 07:57:25 24° SSW 08:11:17 10° SSE daylight
26 Jan - 10:12:37 10° SSW 10:21:08 15° S 10:28:15 10° SSE daylight
26 Jan - 12:33:31 10° SSW 12:42:04 20° SSE 12:48:09 10° ESE daylight
26 Jan - 14:49:37 10° SW 14:58:35 54° SSE 15:03:50 10° ENE daylight
26 Jan - 17:07:31 10° W 17:11:30 19° NW 17:14:39 10° N daylight
26 Jan - 23:57:35 10° NNE 00:01:10 13° NE 00:05:28 10° ENE night (unlit)
27 Jan - 02:05:54 10° NW 02:16:15 54° NE 02:33:28 10° ESE visible
27 Jan - 04:19:25 10° WNW 04:33:26 64° SSW 04:53:36 10° SE visible
27 Jan - 06:38:53 10° WSW 06:54:11 30° SSW 07:10:30 10° SSE daylight
27 Jan - 09:06:57 10° SW 09:17:53 17° S 09:27:21 10° SSE daylight
27 Jan - 11:31:24 10° SSW 11:40:31 18° S 11:47:21 10° SE daylight
27 Jan - 13:48:30 10° SW 13:58:38 38° SSE 14:04:40 10° E daylight
27 Jan - 16:05:42 10° WSW 16:12:36 42° NW 16:17:03 10° NNE daylight
28 Jan - 01:07:34 10° NNW 01:15:58 36° NE 01:29:29 10° E visible
28 Jan - 03:19:31 10° WNW 03:31:45 81° SW 03:51:27 10° SE visible
28 Jan - 05:36:22 10° W 05:51:14 38° SSW 06:09:20 10° SE visible
28 Jan - 08:01:22 10° SW 08:14:16 20° SSW 08:26:18 10° SSE daylight
28 Jan - 10:28:21 10° SSW 10:38:13 17° S 10:46:04 10° SE daylight
28 Jan - 12:47:04 10° SSW 12:58:04 30° SSE 13:05:01 10° E daylight
28 Jan - 15:04:10 10° WSW 15:13:30 82° NW 15:18:49 10° NE daylight
29 Jan - 00:09:58 10° N 00:16:01 21° NE 00:24:39 10° E visible
29 Jan - 02:20:16 10° NW 02:30:43 77° NE 02:48:46 10° ESE visible
29 Jan - 04:35:02 10° W 04:48:42 47° SSW 05:07:45 10° SE visible
29 Jan - 06:56:43 10° WSW 07:10:39 24° SSW 07:25:03 10° SSE daylight
29 Jan - 09:24:17 10° SW 09:35:11 17° S 09:44:21 10° SE daylight
29 Jan - 11:45:12 10° SSW 11:56:52 25° SSE 12:04:47 10° ESE daylight
29 Jan - 14:02:36 10° SW 14:13:54 65° SSE 14:20:08 10° ENE daylight
29 Jan - 16:21:52 10° W 16:27:01 21° NW 16:30:47 10° N daylight
